Regional Weather Roundup
Issued by NWS

Home | Current Version | Previous Version | Text Only | Print | Product List | Glossary On
Versions: 1 2 3 4 5 6 7 8 9 10 11 12 13 14 15 16 17 18 19 20 21 22 23 24 25 26 27 28 29 30 31 32 33 34 35 36 37 38 39 40 41 42 43 44 45 46 47 48 49 50
000
ASUS43 KLSX 112007
RWRMO

WEATHER SUMMARY FOR MISSOURI
NATIONAL WEATHER SERVICE SPRINGFIELD MO
200 PM CST MON DEC 11 2017

NOTE: "FAIR" INDICATES FEW OR NO CLOUDS BELOW 12,000 FEET WITH NO
       SIGNIFICANT WEATHER AND/OR OBSTRUCTIONS TO VISIBILITY.
       CURRENT SKY AND/OR WEATHER CONDITIONS ARE NOT AVAILABLE FOR
       CHILLICOTHE AND FARMINGTON.

MOZ001>031-035>038-043-044-053-054-112100-
...NORTHERN AND WESTERN MISSOURI...

CITY           SKY/WX    TMP DP  RH WIND       PRES   REMARKS
KANSAS CTY INT MOSUNNY   55  27  34 NW25G37   29.97R
KANSAS C DTWN  MOSUNNY   57  26  30 NW24G33   29.96R
LEE`S SUMMIT   MOSUNNY   56  25  30 NW25G37   29.97R
ST JOSEPH      PTSUNNY   54  31  41 NW29G40   29.99R
CHILLICOTHE      N/A     51  29  42 NW18G35   29.92R
KIRKSVILLE     CLOUDY    48  31  51 NW21G40   29.84R

$$
MOZ066>068-077>081-088>096-101>105-112100-
...SOUTHWEST MISSOURI...

CITY           SKY/WX    TMP DP  RH WIND       PRES   REMARKS
SPRINGFIELD    SUNNY     60  19  20 NW21G29   29.94F
JOPLIN         CLOUDY    65  20  17 NW15      29.99F
BRANSON        MOSUNNY   64  18  16 W12G24    29.96S

$$
MOZ032>034-039>042-045>050-055>058-069>072-112100-
...CENTRAL MISSOURI...

CITY           SKY/WX    TMP DP  RH WIND       PRES   REMARKS
COLUMBIA       SUNNY     55  26  32 W26G37    29.85S
JEFFERSON CITY SUNNY     56  26  31 NW21G35   29.87F
ROLLA          PTSUNNY   53  22  29 W18G28    29.87F
SEDALIA        SUNNY     57  26  30 NW29G35   29.93R
WHITEMAN AFB   MOSUNNY   56  23  28 NW20G30   29.89R
WARRENSBURG    SUNNY     55  25  30 NW22G32   29.94R
OSAGE BEACH    MOSUNNY   54  22  28 NW9G23    29.92S

$$
MOZ051-052-059>065-112100-
...EAST CENTRAL MISSOURI...

CITY           SKY/WX    TMP DP  RH WIND       PRES   REMARKS
ST LOUIS INTL  CLOUDY    56  22  26 W22G30    29.77S
SPIRIT OF STL  MOSUNNY   57  22  25 W14G24    29.78F
ST CHARLES     CLOUDY    55  23  28 W26G43    29.76R

$$
MOZ072>076-082>087-097>100-106>115-112100-
...SOUTH CENTRAL AND SOUTHEAST MISSOURI...

CITY           SKY/WX    TMP DP  RH WIND       PRES   REMARKS
CAPE GIRARDEAU SUNNY     59  35  40 S18G25    29.79F
FARMINGTON     CLOUDY    64  18  17 W21G29    29.79S
POPLAR BLUFF   SUNNY     63  36  36 S17       29.81F
WEST PLAINS    PTSUNNY   66  14  13 W15G30    29.88F

$$



USA.gov is the U.S. government's official web portal to all federal, state and local government web resources and services.